Time,TemperatureF,DewpointF,PressureIn,WindDirection,WindDirectionDegrees,WindSpeedMPH,WindSpeedGustMPH,Humidity,HourlyPrecipIn,Conditions,Clouds,dailyrainin,SoftwareType,DateUTC
2013-11-06 00:00:00,52.9,43.4,30.13,SSE,157,0.0,0.0,70,0.00,,,0.02,WUHU21623XXSP,2013-11-06 05:00:00,
2013-11-06 00:01:00,52.9,43.4,30.13,SSE,157,0.0,0.0,70,0.00,,,0.02,WUHU21623XXSP,2013-11-06 05:01:00,
2013-11-06 00:02:00,52.9,43.4,30.13,SSE,157,0.0,0.0,70,0.00,,,0.02,WUHU21623XXSP,2013-11-06 05:02:00,
2013-11-06 00:10:00,52.9,43.4,30.13,SSE,157,0.0,0.0,70,0.00,,,0.00,WUHU21623XXSP,2013-11-06 05:10:00,
2013-11-06 00:15:00,52.9,43.4,30.13,SSE,157,0.0,0.0,70,0.00,,,0.00,WUHU21623XXSP,2013-11-06 05:15:00,
2013-11-06 00:20:00,52.9,43.4,30.13,South,180,0.0,0.0,70,0.00,,,0.00,WUHU21623XXSP,2013-11-06 05:20:00,
2013-11-06 00:25:00,53.2,43.7,30.13,South,180,0.0,0.0,70,0.00,,,0.00,WUHU21623XXSP,2013-11-06 05:25:00,
2013-11-06 00:30:00,53.2,43.7,30.13,ESE,112,0.0,0.0,70,0.00,,,0.00,WUHU21623XXSP,2013-11-06 05:30:00,
2013-11-06 00:35:00,53.2,43.7,30.13,South,180,0.0,0.0,70,0.00,,,0.00,WUHU21623XXSP,2013-11-06 05:35:00,
2013-11-06 00:40:00,53.2,43.7,30.12,South,180,0.0,0.0,70,0.00,,,0.00,WUHU21623XXSP,2013-11-06 05:40:00,
2013-11-06 00:45:00,53.2,43.7,30.12,SE,135,0.0,0.0,70,0.00,,,0.00,WUHU21623XXSP,2013-11-06 05:45:00,
2013-11-06 00:50:00,53.2,43.7,30.12,South,180,0.0,0.0,70,0.00,,,0.00,WUHU21623XXSP,2013-11-06 05:50:00,
2013-11-06 00:55:00,53.4,43.9,30.12,SSE,157,0.0,0.0,70,0.00,,,0.00,WUHU21623XXSP,2013-11-06 05:55:00,
2013-11-06 01:00:00,53.4,43.5,30.11,West,270,0.0,0.0,69,0.00,,,0.00,WUHU21623XXSP,2013-11-06 06:00:00,
2013-11-06 01:05:00,53.4,43.5,30.11,West,270,0.0,0.0,69,0.00,,,0.00,WUHU21623XXSP,2013-11-06 06:05:00,
2013-11-06 01:10:00,53.4,43.5,30.11,West,270,0.0,0.0,69,0.00,,,0.00,WUHU21623XXSP,2013-11-06 06:10:00,
2013-11-06 01:15:00,53.4,43.5,30.11,SW,225,0.0,0.0,69,0.00,,,0.00,WUHU21623XXSP,2013-11-06 06:15:00,
2013-11-06 01:20:00,53.6,43.7,30.11,South,180,0.0,0.0,69,0.00,,,0.00,WUHU21623XXSP,2013-11-06 06:20:00,
2013-11-06 01:25:00,53.8,43.8,30.11,ESE,112,0.0,0.0,69,0.00,,,0.00,WUHU21623XXSP,2013-11-06 06:25:00,
2013-11-06 01:30:00,53.8,43.8,30.11,West,270,0.0,0.0,69,0.00,,,0.00,WUHU21623XXSP,2013-11-06 06:30:00,
2013-11-06 01:35:00,53.8,43.8,30.10,NNW,337,0.0,0.0,69,0.00,,,0.00,WUHU21623XXSP,2013-11-06 06:35:00,
2013-11-06 01:40:00,53.8,43.8,30.10,SSE,157,0.0,0.0,69,0.00,,,0.00,WUHU21623XXSP,2013-11-06 06:40:00,
2013-11-06 01:45:00,53.8,43.8,30.09,SW,225,0.0,0.0,69,0.00,,,0.00,WUHU21623XXSP,2013-11-06 06:45:00,
2013-11-06 01:50:00,54.1,43.8,30.09,SSE,157,0.0,0.0,68,0.00,,,0.00,WUHU21623XXSP,2013-11-06 06:50:00,
2013-11-06 01:55:00,54.1,43.8,30.09,SSE,157,0.0,0.0,68,0.00,,,0.00,WUHU21623XXSP,2013-11-06 06:55:00,
2013-11-06 02:01:00,54.1,43.8,30.09,SSE,157,0.0,0.0,68,0.00,,,0.00,WUHU21623XXSP,2013-11-06 07:01:00,
2013-11-06 02:12:00,54.1,43.8,30.09,SSE,157,0.0,0.0,68,0.00,,,0.00,WUHU21623XXSP,2013-11-06 07:12:00,
2013-11-06 02:17:00,54.3,44.0,30.08,West,270,0.0,0.0,68,0.00,,,0.00,WUHU21623XXSP,2013-11-06 07:17:00,
2013-11-06 02:22:00,54.3,44.4,30.08,SSW,202,0.0,0.0,69,0.00,,,0.00,WUHU21623XXSP,2013-11-06 07:22:00,
2013-11-06 02:27:00,54.3,44.4,30.08,SW,225,0.0,0.0,69,0.00,,,0.00,WUHU21623XXSP,2013-11-06 07:27:00,
2013-11-06 02:32:00,54.5,44.5,30.08,WSW,247,0.0,0.0,69,0.00,,,0.00,WUHU21623XXSP,2013-11-06 07:32:00,
2013-11-06 02:37:00,54.5,44.5,30.08,ESE,112,0.0,0.0,69,0.00,,,0.00,WUHU21623XXSP,2013-11-06 07:37:00,
2013-11-06 02:42:00,54.7,44.7,30.07,West,270,0.0,0.0,69,0.00,,,0.00,WUHU21623XXSP,2013-11-06 07:42:00,
2013-11-06 02:47:00,54.7,44.7,30.07,South,180,0.0,0.0,69,0.00,,,0.00,WUHU21623XXSP,2013-11-06 07:47:00,
2013-11-06 02:52:00,54.7,44.3,30.06,ESE,112,0.0,0.0,68,0.00,,,0.00,WUHU21623XXSP,2013-11-06 07:52:00,
2013-11-06 02:57:00,54.9,44.9,30.06,SSE,157,0.0,0.0,69,0.00,,,0.00,WUHU21623XXSP,2013-11-06 07:57:00,
2013-11-06 03:02:00,54.9,44.5,30.06,WNW,292,0.0,0.0,68,0.00,,,0.00,WUHU21623XXSP,2013-11-06 08:02:00,
2013-11-06 03:10:00,54.9,44.5,30.06,WNW,292,0.0,0.0,68,0.00,,,0.00,WUHU21623XXSP,2013-11-06 08:10:00,
2013-11-06 03:15:00,54.9,44.5,30.06,WNW,292,0.0,0.0,68,0.00,,,0.00,WUHU21623XXSP,2013-11-06 08:15:00,
2013-11-06 03:20:00,54.9,44.9,30.06,SW,225,0.0,0.0,69,0.00,,,0.00,WUHU21623XXSP,2013-11-06 08:20:00,
2013-11-06 03:25:00,54.9,44.9,30.05,North,0,0.0,0.0,69,0.00,,,0.00,WUHU21623XXSP,2013-11-06 08:25:00,
2013-11-06 03:30:00,55.0,45.1,30.05,WSW,247,0.0,0.0,69,0.00,,,0.00,WUHU21623XXSP,2013-11-06 08:30:00,
2013-11-06 03:35:00,55.0,45.1,30.05,WSW,247,0.0,0.0,69,0.00,,,0.00,WUHU21623XXSP,2013-11-06 08:35:00,
2013-11-06 03:40:00,55.0,45.1,30.05,West,270,0.0,0.0,69,0.00,,,0.00,WUHU21623XXSP,2013-11-06 08:40:00,
2013-11-06 03:45:00,55.0,45.1,30.05,SE,135,0.0,0.0,69,0.00,,,0.00,WUHU21623XXSP,2013-11-06 08:45:00,
2013-11-06 03:50:00,55.2,45.3,30.05,NW,315,0.0,0.0,69,0.00,,,0.00,WUHU21623XXSP,2013-11-06 08:50:00,
2013-11-06 03:55:00,55.2,45.3,30.04,WSW,247,0.0,0.0,69,0.00,,,0.00,WUHU21623XXSP,2013-11-06 08:55:00,
2013-11-06 04:00:00,55.2,45.3,30.05,South,180,0.0,0.0,69,0.00,,,0.00,WUHU21623XXSP,2013-11-06 09:00:00,
2013-11-06 04:05:00,55.2,45.3,30.05,South,180,0.0,0.0,69,0.00,,,0.00,WUHU21623XXSP,2013-11-06 09:05:00,
2013-11-06 04:10:00,55.2,45.3,30.05,South,180,0.0,0.0,69,0.00,,,0.00,WUHU21623XXSP,2013-11-06 09:10:00,
2013-11-06 04:15:00,54.9,45.3,30.04,South,180,0.0,0.0,70,0.00,,,0.00,WUHU21623XXSP,2013-11-06 09:15:00,
2013-11-06 04:20:00,54.9,45.7,30.04,South,180,0.0,0.0,71,0.00,,,0.00,WUHU21623XXSP,2013-11-06 09:20:00,
2013-11-06 04:25:00,54.7,45.5,30.05,SE,135,0.0,0.0,71,0.00,,,0.00,WUHU21623XXSP,2013-11-06 09:25:00,
2013-11-06 04:30:00,54.5,45.7,30.04,SSW,202,0.0,0.0,72,0.00,,,0.00,WUHU21623XXSP,2013-11-06 09:30:00,
2013-11-06 04:35:00,54.3,45.5,30.04,South,180,0.0,0.0,72,0.00,,,0.00,WUHU21623XXSP,2013-11-06 09:35:00,
2013-11-06 04:40:00,54.1,45.3,30.04,SW,225,0.0,0.0,72,0.02,,,0.02,WUHU21623XXSP,2013-11-06 09:40:00,
2013-11-06 04:45:00,54.0,45.5,30.04,SE,135,0.0,0.0,73,0.02,,,0.02,WUHU21623XXSP,2013-11-06 09:45:00,
2013-11-06 04:50:00,54.0,45.5,30.03,SSW,202,0.0,0.0,73,0.02,,,0.02,WUHU21623XXSP,2013-11-06 09:50:00,
2013-11-06 04:55:00,53.8,45.7,30.03,West,270,0.0,0.0,74,0.02,,,0.02,WUHU21623XXSP,2013-11-06 09:55:00,
2013-11-06 05:00:00,53.8,45.7,30.03,SE,135,0.0,0.0,74,0.02,,,0.02,WUHU21623XXSP,2013-11-06 10:00:00,
2013-11-06 05:05:00,53.8,45.7,30.03,SE,135,0.0,0.0,74,0.02,,,0.02,WUHU21623XXSP,2013-11-06 10:05:00,
2013-11-06 05:10:00,53.8,45.7,30.03,SE,135,0.0,0.0,74,0.02,,,0.02,WUHU21623XXSP,2013-11-06 10:10:00,
2013-11-06 05:15:00,53.8,46.0,30.03,SSE,157,0.0,0.0,75,0.02,,,0.02,WUHU21623XXSP,2013-11-06 10:15:00,
2013-11-06 05:20:00,53.8,46.0,30.03,SSE,157,0.0,0.0,75,0.02,,,0.02,WUHU21623XXSP,2013-11-06 10:20:00,
2013-11-06 05:25:00,53.8,46.4,30.02,SSW,202,0.0,0.0,76,0.02,,,0.02,WUHU21623XXSP,2013-11-06 10:25:00,
2013-11-06 05:30:00,53.4,46.0,30.02,South,180,0.0,0.0,76,0.02,,,0.02,WUHU21623XXSP,2013-11-06 10:30:00,
2013-11-06 05:35:00,53.4,46.0,30.02,South,180,0.0,0.0,76,0.02,,,0.02,WUHU21623XXSP,2013-11-06 10:35:00,
2013-11-06 05:40:00,53.4,46.0,30.02,South,180,0.0,0.0,76,0.00,,,0.02,WUHU21623XXSP,2013-11-06 10:40:00,
2013-11-06 05:45:00,53.4,46.4,30.01,SSE,157,0.0,0.0,77,0.00,,,0.02,WUHU21623XXSP,2013-11-06 10:45:00,
2013-11-06 05:50:00,53.4,46.4,30.02,South,180,0.0,0.0,77,0.00,,,0.02,WUHU21623XXSP,2013-11-06 10:50:00,
2013-11-06 05:55:00,53.4,46.4,30.02,SSE,157,0.0,0.0,77,0.00,,,0.02,WUHU21623XXSP,2013-11-06 10:55:00,
2013-11-06 06:00:00,53.4,46.4,30.01,SSE,157,0.0,0.0,77,0.00,,,0.02,WUHU21623XXSP,2013-11-06 11:00:00,
2013-11-06 06:05:00,53.4,46.4,30.01,SSE,157,0.0,0.0,77,0.00,,,0.02,WUHU21623XXSP,2013-11-06 11:05:00,
2013-11-06 06:10:00,53.4,46.4,30.01,SSE,157,0.0,0.0,77,0.00,,,0.02,WUHU21623XXSP,2013-11-06 11:10:00,
2013-11-06 06:15:00,53.4,46.8,30.00,SSE,157,0.0,0.0,78,0.00,,,0.02,WUHU21623XXSP,2013-11-06 11:15:00,
2013-11-06 06:20:00,53.4,46.8,30.01,SSE,157,0.0,0.0,78,0.00,,,0.02,WUHU21623XXSP,2013-11-06 11:20:00,
2013-11-06 06:25:00,53.4,46.8,30.01,East,90,0.0,0.0,78,0.00,,,0.02,WUHU21623XXSP,2013-11-06 11:25:00,
2013-11-06 06:30:00,53.6,46.9,30.00,North,0,0.0,0.0,78,0.00,,,0.02,WUHU21623XXSP,2013-11-06 11:30:00,
2013-11-06 06:35:00,53.8,47.1,30.00,West,270,0.0,0.0,78,0.00,,,0.02,WUHU21623XXSP,2013-11-06 11:35:00,
2013-11-06 06:40:00,53.8,47.1,30.00,SW,225,0.0,0.0,78,0.00,,,0.02,WUHU21623XXSP,2013-11-06 11:40:00,
2013-11-06 06:45:00,53.8,47.1,30.00,South,180,0.0,0.0,78,0.00,,,0.02,WUHU21623XXSP,2013-11-06 11:45:00,
2013-11-06 06:50:00,53.8,47.1,30.00,NE,45,0.0,0.0,78,0.00,,,0.02,WUHU21623XXSP,2013-11-06 11:50:00,
2013-11-06 06:55:00,53.8,47.5,29.99,SSE,157,0.0,0.0,79,0.00,,,0.02,WUHU21623XXSP,2013-11-06 11:55:00,
2013-11-06 07:00:00,53.8,47.5,29.99,SE,135,0.0,0.0,79,0.00,,,0.02,WUHU21623XXSP,2013-11-06 12:00:00,
2013-11-06 07:05:00,53.8,47.5,30.00,SSE,157,0.0,0.0,79,0.00,,,0.02,WUHU21623XXSP,2013-11-06 12:05:00,
2013-11-06 07:10:00,53.8,47.5,29.99,SSE,157,0.0,0.0,79,0.00,,,0.02,WUHU21623XXSP,2013-11-06 12:10:00,
2013-11-06 07:15:00,53.8,47.5,30.00,NW,315,0.0,0.0,79,0.00,,,0.02,WUHU21623XXSP,2013-11-06 12:15:00,
2013-11-06 07:20:00,53.8,47.5,29.99,South,180,0.0,0.0,79,0.00,,,0.02,WUHU21623XXSP,2013-11-06 12:20:00,
2013-11-06 07:25:00,53.8,47.8,29.99,SW,225,0.0,0.0,80,0.00,,,0.02,WUHU21623XXSP,2013-11-06 12:25:00,
2013-11-06 07:30:00,53.6,47.7,30.00,WNW,292,0.0,0.0,80,0.00,,,0.02,WUHU21623XXSP,2013-11-06 12:30:00,
2013-11-06 07:35:00,53.6,47.7,29.99,SSW,202,0.0,0.0,80,0.00,,,0.02,WUHU21623XXSP,2013-11-06 12:35:00,
2013-11-06 07:40:00,53.4,47.5,30.00,West,270,0.0,0.0,80,0.00,,,0.02,WUHU21623XXSP,2013-11-06 12:40:00,
2013-11-06 07:45:00,53.4,47.5,30.00,WSW,247,0.0,0.0,80,0.00,,,0.02,WUHU21623XXSP,2013-11-06 12:45:00,
2013-11-06 07:50:00,53.4,47.5,30.00,WNW,292,0.0,0.0,80,0.02,,,0.04,WUHU21623XXSP,2013-11-06 12:50:00,
2013-11-06 07:55:00,53.4,47.5,30.00,South,180,0.0,0.0,80,0.02,,,0.04,WUHU21623XXSP,2013-11-06 12:55:00,
2013-11-06 08:00:00,53.4,47.5,30.00,WNW,292,0.0,0.0,80,0.02,,,0.04,WUHU21623XXSP,2013-11-06 13:00:00,
2013-11-06 08:05:00,53.4,47.5,30.00,WNW,292,0.0,0.0,80,0.02,,,0.04,WUHU21623XXSP,2013-11-06 13:05:00,
2013-11-06 08:10:00,53.4,47.5,30.00,WNW,292,0.0,0.0,80,0.02,,,0.04,WUHU21623XXSP,2013-11-06 13:10:00,
2013-11-06 08:15:00,53.4,47.5,29.99,SSW,202,0.0,0.0,80,0.02,,,0.04,WUHU21623XXSP,2013-11-06 13:15:00,
2013-11-06 08:20:00,53.4,47.5,29.99,South,180,0.0,0.0,80,0.02,,,0.04,WUHU21623XXSP,2013-11-06 13:20:00,
2013-11-06 08:25:00,53.4,47.5,30.00,South,180,0.0,0.0,80,0.04,,,0.06,WUHU21623XXSP,2013-11-06 13:25:00,
2013-11-06 08:30:00,53.4,47.8,30.00,South,180,0.0,0.0,81,0.04,,,0.06,WUHU21623XXSP,2013-11-06 13:30:00,
2013-11-06 08:35:00,53.4,47.8,30.00,South,180,0.0,0.0,81,0.04,,,0.06,WUHU21623XXSP,2013-11-06 13:35:00,
2013-11-06 08:40:00,53.4,47.8,30.00,WSW,247,0.0,0.0,81,0.04,,,0.06,WUHU21623XXSP,2013-11-06 13:40:00,
2013-11-06 08:45:00,53.4,47.8,30.00,SE,135,0.0,0.0,81,0.04,,,0.06,WUHU21623XXSP,2013-11-06 13:45:00,
2013-11-06 08:50:00,53.4,47.8,30.00,WSW,247,0.0,0.0,81,0.02,,,0.06,WUHU21623XXSP,2013-11-06 13:50:00,
2013-11-06 08:55:00,53.4,47.8,30.00,SSE,157,0.0,0.0,81,0.02,,,0.06,WUHU21623XXSP,2013-11-06 13:55:00,
2013-11-06 09:00:00,53.4,47.8,29.99,ENE,67,0.0,0.0,81,0.02,,,0.06,WUHU21623XXSP,2013-11-06 14:00:00,
2013-11-06 09:05:00,53.4,47.8,29.99,WSW,247,0.0,0.0,81,0.02,,,0.06,WUHU21623XXSP,2013-11-06 14:05:00,
2013-11-06 09:10:00,53.4,48.1,29.99,SW,225,0.0,0.0,82,0.02,,,0.06,WUHU21623XXSP,2013-11-06 14:10:00,
2013-11-06 09:15:00,53.4,48.1,29.99,WSW,247,0.0,0.0,82,0.02,,,0.06,WUHU21623XXSP,2013-11-06 14:15:00,
2013-11-06 09:20:00,53.4,48.1,29.99,SW,225,0.0,0.0,82,0.00,,,0.06,WUHU21623XXSP,2013-11-06 14:20:00,
2013-11-06 09:25:00,53.4,48.1,29.99,SE,135,0.0,0.0,82,0.00,,,0.06,WUHU21623XXSP,2013-11-06 14:25:00,
2013-11-06 09:30:00,53.8,48.4,29.99,SSW,202,0.0,0.0,82,0.00,,,0.06,WUHU21623XXSP,2013-11-06 14:30:00,
2013-11-06 09:35:00,53.8,48.4,29.99,NNE,22,0.0,0.0,82,0.00,,,0.06,WUHU21623XXSP,2013-11-06 14:35:00,
2013-11-06 09:40:00,53.8,48.4,29.99,NE,45,0.0,0.0,82,0.00,,,0.06,WUHU21623XXSP,2013-11-06 14:40:00,
2013-11-06 09:45:00,53.8,48.4,29.99,NW,315,0.0,0.0,82,0.00,,,0.06,WUHU21623XXSP,2013-11-06 14:45:00,
2013-11-06 09:50:00,53.8,48.4,30.00,SE,135,0.0,0.0,82,0.00,,,0.06,WUHU21623XXSP,2013-11-06 14:50:00,
2013-11-06 09:55:00,53.8,48.4,29.99,SSE,157,0.0,0.0,82,0.02,,,0.08,WUHU21623XXSP,2013-11-06 14:55:00,
2013-11-06 10:00:00,53.8,48.4,29.99,NNW,337,0.0,0.0,82,0.02,,,0.08,WUHU21623XXSP,2013-11-06 15:00:00,
2013-11-06 10:05:00,53.8,48.4,29.99,WNW,292,0.0,0.0,82,0.02,,,0.08,WUHU21623XXSP,2013-11-06 15:05:00,
2013-11-06 10:10:00,53.8,48.4,29.99,WNW,292,0.0,0.0,82,0.02,,,0.08,WUHU21623XXSP,2013-11-06 15:10:00,
2013-11-06 10:15:00,53.8,48.4,29.98,East,90,0.0,0.0,82,0.02,,,0.08,WUHU21623XXSP,2013-11-06 15:15:00,
2013-11-06 10:20:00,54.0,48.6,29.98,WSW,247,0.0,0.0,82,0.02,,,0.08,WUHU21623XXSP,2013-11-06 15:20:00,
2013-11-06 10:25:00,54.0,48.6,29.98,ESE,112,0.0,0.0,82,0.02,,,0.08,WUHU21623XXSP,2013-11-06 15:25:00,
2013-11-06 10:30:00,54.0,48.6,29.98,NW,315,0.0,0.0,82,0.02,,,0.08,WUHU21623XXSP,2013-11-06 15:30:00,
2013-11-06 10:35:00,54.3,49.2,29.98,WSW,247,0.0,0.0,83,0.02,,,0.08,WUHU21623XXSP,2013-11-06 15:35:00,
2013-11-06 10:40:00,54.3,49.2,29.98,ESE,112,0.0,0.0,83,0.02,,,0.08,WUHU21623XXSP,2013-11-06 15:40:00,
2013-11-06 10:45:00,54.3,49.2,29.98,West,270,0.0,0.0,83,0.02,,,0.08,WUHU21623XXSP,2013-11-06 15:45:00,
2013-11-06 10:50:00,54.5,49.4,29.98,South,180,0.0,0.0,83,0.02,,,0.08,WUHU21623XXSP,2013-11-06 15:50:00,
2013-11-06 10:55:00,54.5,49.4,29.97,West,270,0.0,0.0,83,0.00,,,0.08,WUHU21623XXSP,2013-11-06 15:55:00,
2013-11-06 11:00:00,54.7,49.6,29.97,SW,225,0.0,0.0,83,0.00,,,0.08,WUHU21623XXSP,2013-11-06 16:00:00,
2013-11-06 11:05:00,54.4,49.3,29.97,SSW,202,0.0,0.0,83,0.00,,,0.08,WUHU21623XXSP,2013-11-06 16:05:00,
2013-11-06 11:10:00,54.1,49.0,29.97,SW,225,0.0,0.0,83,0.00,,,0.08,WUHU21623XXSP,2013-11-06 16:10:00,
2013-11-06 11:15:00,53.8,48.7,29.97,South,180,0.0,0.0,83,0.00,,,0.08,WUHU21623XXSP,2013-11-06 16:15:00,
2013-11-06 11:20:00,53.5,48.4,29.97,West,270,0.0,0.0,83,0.02,,,0.10,WUHU21623XXSP,2013-11-06 16:20:00,
2013-11-06 11:25:00,53.0,48.3,29.97,West,270,0.0,0.0,84,0.02,,,0.10,WUHU21623XXSP,2013-11-06 16:25:00,
2013-11-06 11:30:00,52.9,48.2,29.97,West,270,0.0,0.0,84,0.02,,,0.10,WUHU21623XXSP,2013-11-06 16:30:00,
2013-11-06 11:35:00,52.4,47.7,29.97,West,270,0.0,0.0,84,0.02,,,0.10,WUHU21623XXSP,2013-11-06 16:35:00,
2013-11-06 11:40:00,51.9,47.2,29.97,SW,225,0.0,0.0,84,0.04,,,0.12,WUHU21623XXSP,2013-11-06 16:40:00,
2013-11-06 11:45:00,51.6,46.9,29.97,SW,225,0.0,0.0,84,0.04,,,0.12,WUHU21623XXSP,2013-11-06 16:45:00,
2013-11-06 11:50:00,51.1,46.7,29.96,SW,225,0.0,0.0,85,0.04,,,0.12,WUHU21623XXSP,2013-11-06 16:50:00,
2013-11-06 11:55:00,51.0,46.7,29.96,WSW,247,0.0,0.0,85,0.04,,,0.12,WUHU21623XXSP,2013-11-06 16:55:00,
2013-11-06 12:00:00,50.6,46.5,29.96,WSW,247,0.0,0.0,86,0.04,,,0.12,WUHU21623XXSP,2013-11-06 17:00:00,
2013-11-06 12:05:00,50.3,46.3,29.95,WSW,247,0.0,0.0,86,0.04,,,0.12,WUHU21623XXSP,2013-11-06 17:05:00,
2013-11-06 12:10:00,50.1,46.0,29.95,WNW,292,0.0,0.0,86,0.04,,,0.12,WUHU21623XXSP,2013-11-06 17:10:00,
2013-11-06 12:15:00,49.8,45.8,29.95,SW,225,0.0,0.0,86,0.04,,,0.12,WUHU21623XXSP,2013-11-06 17:15:00,
2013-11-06 12:20:00,49.6,45.5,29.95,SW,225,0.0,0.0,86,0.02,,,0.12,WUHU21623XXSP,2013-11-06 17:20:00,
2013-11-06 12:25:00,49.3,45.3,29.94,West,270,0.0,0.0,86,0.02,,,0.12,WUHU21623XXSP,2013-11-06 17:25:00,
2013-11-06 12:30:00,49.1,45.4,29.95,WSW,247,0.0,0.0,87,0.02,,,0.12,WUHU21623XXSP,2013-11-06 17:30:00,
2013-11-06 12:35:00,48.9,45.2,29.94,West,270,0.0,0.0,87,0.02,,,0.12,WUHU21623XXSP,2013-11-06 17:35:00,
2013-11-06 12:40:00,48.7,44.7,29.94,West,270,0.0,0.0,86,0.00,,,0.12,WUHU21623XXSP,2013-11-06 17:40:00,
2013-11-06 12:45:00,48.5,44.8,29.94,WNW,292,0.0,0.0,87,0.00,,,0.12,WUHU21623XXSP,2013-11-06 17:45:00,
2013-11-06 12:50:00,48.3,44.6,29.94,West,270,0.0,0.0,87,0.00,,,0.12,WUHU21623XXSP,2013-11-06 17:50:00,
2013-11-06 12:55:00,48.2,44.5,29.94,West,270,0.0,0.0,87,0.00,,,0.12,WUHU21623XXSP,2013-11-06 17:55:00,
2013-11-06 13:00:00,48.0,44.3,29.94,West,270,0.0,0.0,87,0.00,,,0.12,WUHU21623XXSP,2013-11-06 18:00:00,
2013-11-06 13:05:00,47.9,44.2,29.93,SW,225,0.0,0.0,87,0.00,,,0.12,WUHU21623XXSP,2013-11-06 18:05:00,
2013-11-06 13:10:00,47.7,44.0,29.92,North,0,0.0,0.0,87,0.00,,,0.12,WUHU21623XXSP,2013-11-06 18:10:00,
2013-11-06 13:15:00,47.6,43.9,29.92,SW,225,0.0,0.0,87,0.00,,,0.12,WUHU21623XXSP,2013-11-06 18:15:00,
2013-11-06 13:20:00,47.7,44.0,29.90,SW,225,0.0,0.0,87,0.00,,,0.12,WUHU21623XXSP,2013-11-06 18:20:00,
2013-11-06 13:25:00,47.6,43.9,29.89,WSW,247,0.0,0.0,87,0.00,,,0.12,WUHU21623XXSP,2013-11-06 18:25:00,
2013-11-06 13:30:00,47.5,43.8,29.88,NNW,337,0.0,0.0,87,0.00,,,0.12,WUHU21623XXSP,2013-11-06 18:30:00,
2013-11-06 13:35:00,47.7,44.0,29.87,SSE,157,0.0,0.0,87,0.00,,,0.12,WUHU21623XXSP,2013-11-06 18:35:00,
2013-11-06 13:40:00,47.8,44.1,29.87,SW,225,0.0,0.0,87,0.00,,,0.12,WUHU21623XXSP,2013-11-06 18:40:00,
2013-11-06 13:45:00,47.8,44.1,29.87,SSE,157,0.0,0.0,87,0.00,,,0.12,WUHU21623XXSP,2013-11-06 18:45:00,
2013-11-06 13:50:00,48.0,44.3,29.91,SW,225,0.0,0.0,87,0.00,,,0.12,WUHU21623XXSP,2013-11-06 18:50:00,
2013-11-06 13:55:00,48.0,44.3,29.93,WSW,247,0.0,0.0,87,0.00,,,0.12,WUHU21623XXSP,2013-11-06 18:55:00,
2013-11-06 14:00:00,48.2,44.5,29.93,SE,135,0.0,0.0,87,0.00,,,0.12,WUHU21623XXSP,2013-11-06 19:00:00,
2013-11-06 14:05:00,48.0,44.0,29.94,WNW,292,0.0,0.0,86,0.00,,,0.12,WUHU21623XXSP,2013-11-06 19:05:00,
2013-11-06 14:10:00,48.0,44.0,29.94,NNW,337,0.0,0.0,86,0.00,,,0.12,WUHU21623XXSP,2013-11-06 19:10:00,
2013-11-06 14:15:00,48.1,44.1,29.94,NNW,337,0.0,0.0,86,0.00,,,0.12,WUHU21623XXSP,2013-11-06 19:15:00,
2013-11-06 14:20:00,48.1,44.1,29.95,West,270,0.0,0.0,86,0.00,,,0.12,WUHU21623XXSP,2013-11-06 19:20:00,
2013-11-06 14:25:00,48.2,44.2,29.95,West,270,0.0,0.0,86,0.00,,,0.12,WUHU21623XXSP,2013-11-06 19:25:00,
2013-11-06 14:30:00,48.2,44.2,29.94,WNW,292,0.0,0.0,86,0.00,,,0.12,WUHU21623XXSP,2013-11-06 19:30:00,
2013-11-06 14:35:00,48.3,44.3,29.95,WSW,247,0.0,0.0,86,0.00,,,0.12,WUHU21623XXSP,2013-11-06 19:35:00,
2013-11-06 14:40:00,48.4,44.4,29.94,WSW,247,0.0,0.0,86,0.00,,,0.12,WUHU21623XXSP,2013-11-06 19:40:00,
2013-11-06 14:45:00,48.5,44.5,29.94,NW,315,0.0,0.0,86,0.00,,,0.12,WUHU21623XXSP,2013-11-06 19:45:00,
2013-11-06 14:50:00,48.7,44.7,29.94,West,270,0.0,0.0,86,0.00,,,0.12,WUHU21623XXSP,2013-11-06 19:50:00,
2013-11-06 14:55:00,48.8,44.8,29.95,NW,315,0.0,0.0,86,0.00,,,0.12,WUHU21623XXSP,2013-11-06 19:55:00,
2013-11-06 15:00:00,49.0,44.9,29.95,West,270,0.0,0.0,86,0.00,,,0.12,WUHU21623XXSP,2013-11-06 20:00:00,
2013-11-06 15:05:00,49.1,44.8,29.95,NW,315,0.0,0.0,85,0.00,,,0.12,WUHU21623XXSP,2013-11-06 20:05:00,
2013-11-06 15:10:00,49.3,45.0,29.95,WNW,292,0.0,0.0,85,0.00,,,0.12,WUHU21623XXSP,2013-11-06 20:10:00,
2013-11-06 15:15:00,49.5,45.1,29.94,SW,225,0.0,0.0,85,0.00,,,0.12,WUHU21623XXSP,2013-11-06 20:15:00,
2013-11-06 15:20:00,49.7,45.3,29.95,South,180,0.0,0.0,85,0.00,,,0.12,WUHU21623XXSP,2013-11-06 20:20:00,
2013-11-06 15:25:00,49.9,45.5,29.94,NNW,337,0.0,0.0,85,0.00,,,0.12,WUHU21623XXSP,2013-11-06 20:25:00,
2013-11-06 15:30:00,50.1,45.7,29.94,WSW,247,0.0,0.0,85,0.00,,,0.12,WUHU21623XXSP,2013-11-06 20:30:00,
2013-11-06 15:35:00,50.2,45.9,29.94,WNW,292,0.0,0.0,85,0.00,,,0.12,WUHU21623XXSP,2013-11-06 20:35:00,
2013-11-06 15:40:00,50.5,46.2,29.94,SW,225,0.0,0.0,85,0.00,,,0.12,WUHU21623XXSP,2013-11-06 20:40:00,
2013-11-06 15:45:00,50.5,46.1,29.94,SSE,157,0.0,0.0,85,0.00,,,0.12,WUHU21623XXSP,2013-11-06 20:45:00,
2013-11-06 15:50:00,50.9,46.9,29.94,West,270,0.0,0.0,86,0.00,,,0.12,WUHU21623XXSP,2013-11-06 20:50:00,
2013-11-06 15:55:00,51.0,46.9,29.95,WSW,247,0.0,0.0,86,0.00,,,0.12,WUHU21623XXSP,2013-11-06 20:55:00,
2013-11-06 16:00:00,51.2,47.2,29.94,WNW,292,0.0,0.0,86,0.00,,,0.12,WUHU21623XXSP,2013-11-06 21:00:00,
2013-11-06 16:05:00,51.5,47.4,29.94,WSW,247,0.0,0.0,86,0.00,,,0.12,WUHU21623XXSP,2013-11-06 21:05:00,
2013-11-06 16:10:00,51.6,47.5,29.95,WSW,247,0.0,0.0,86,0.00,,,0.12,WUHU21623XXSP,2013-11-06 21:10:00,
2013-11-06 16:15:00,51.9,47.8,29.95,SW,225,0.0,0.0,86,0.00,,,0.12,WUHU21623XXSP,2013-11-06 21:15:00,
2013-11-06 16:20:00,52.1,48.1,29.95,West,270,0.0,0.0,86,0.00,,,0.12,WUHU21623XXSP,2013-11-06 21:20:00,
2013-11-06 16:25:00,52.4,48.4,29.95,SSW,202,0.0,0.0,86,0.00,,,0.12,WUHU21623XXSP,2013-11-06 21:25:00,
2013-11-06 16:30:00,52.7,48.6,29.95,WSW,247,0.0,0.0,86,0.00,,,0.12,WUHU21623XXSP,2013-11-06 21:30:00,
2013-11-06 16:35:00,53.0,49.2,29.94,West,270,0.0,0.0,87,0.00,,,0.12,WUHU21623XXSP,2013-11-06 21:35:00,
2013-11-06 16:40:00,53.1,49.3,29.95,West,270,0.0,0.0,87,0.00,,,0.12,WUHU21623XXSP,2013-11-06 21:40:00,
2013-11-06 16:45:00,53.4,49.6,29.95,NNW,337,0.0,0.0,87,0.00,,,0.12,WUHU21623XXSP,2013-11-06 21:45:00,
2013-11-06 16:50:00,53.7,49.9,29.95,WNW,292,0.0,0.0,87,0.00,,,0.12,WUHU21623XXSP,2013-11-06 21:50:00,
2013-11-06 16:55:00,54.0,50.2,29.94,SW,225,0.0,0.0,87,0.00,,,0.12,WUHU21623XXSP,2013-11-06 21:55:00,
2013-11-06 17:01:00,54.1,50.3,29.95,NNW,337,0.0,0.0,87,0.00,,,0.12,WUHU21623XXSP,2013-11-06 22:01:00,
2013-11-06 17:06:00,54.1,50.3,29.96,North,0,0.0,0.0,87,0.00,,,0.12,WUHU21623XXSP,2013-11-06 22:06:00,
2013-11-06 17:11:00,54.0,50.1,29.97,NW,315,0.0,0.0,87,0.00,,,0.12,WUHU21623XXSP,2013-11-06 22:11:00,
2013-11-06 17:16:00,53.4,49.6,29.97,NW,315,0.0,0.0,87,0.02,,,0.14,WUHU21623XXSP,2013-11-06 22:16:00,
2013-11-06 17:21:00,52.7,48.6,29.97,NNW,337,0.0,0.0,86,0.02,,,0.14,WUHU21623XXSP,2013-11-06 22:21:00,
2013-11-06 17:26:00,52.3,48.2,29.97,West,270,0.0,0.0,86,0.02,,,0.14,WUHU21623XXSP,2013-11-06 22:26:00,
2013-11-06 17:31:00,51.6,47.5,29.98,WNW,292,0.0,0.0,86,0.02,,,0.14,WUHU21623XXSP,2013-11-06 22:31:00,
2013-11-06 17:36:00,51.4,47.3,29.98,North,0,0.0,0.0,86,0.02,,,0.14,WUHU21623XXSP,2013-11-06 22:36:00,
2013-11-06 17:41:00,50.9,46.8,29.98,NW,315,0.0,0.0,86,0.02,,,0.14,WUHU21623XXSP,2013-11-06 22:41:00,
2013-11-06 17:46:00,49.8,45.4,29.99,WNW,292,0.0,0.0,85,0.02,,,0.14,WUHU21623XXSP,2013-11-06 22:46:00,
2013-11-06 17:51:00,49.3,44.9,29.99,NW,315,0.0,0.0,85,0.02,,,0.14,WUHU21623XXSP,2013-11-06 22:51:00,
2013-11-06 17:56:00,48.9,44.6,30.00,WNW,292,0.0,0.0,85,0.02,,,0.14,WUHU21623XXSP,2013-11-06 22:56:00,
2013-11-06 18:01:00,48.6,44.2,30.01,WNW,292,0.0,0.0,85,0.02,,,0.14,WUHU21623XXSP,2013-11-06 23:01:00,
2013-11-06 18:06:00,48.0,43.7,30.01,West,270,0.0,0.0,85,0.02,,,0.14,WUHU21623XXSP,2013-11-06 23:06:00,
2013-11-06 18:11:00,47.5,43.2,30.00,West,270,0.0,0.0,85,0.02,,,0.14,WUHU21623XXSP,2013-11-06 23:11:00,
2013-11-06 18:16:00,47.1,42.9,30.00,NNW,337,0.0,0.0,85,0.00,,,0.14,WUHU21623XXSP,2013-11-06 23:16:00,
2013-11-06 18:21:00,46.9,43.0,30.01,NNW,337,0.0,0.0,86,0.00,,,0.14,WUHU21623XXSP,2013-11-06 23:21:00,
2013-11-06 18:26:00,46.8,42.8,30.01,NNW,337,0.0,0.0,86,0.00,,,0.14,WUHU21623XXSP,2013-11-06 23:26:00,
2013-11-06 18:31:00,46.2,42.3,30.02,WNW,292,0.0,0.0,86,0.00,,,0.14,WUHU21623XXSP,2013-11-06 23:31:00,
2013-11-06 18:36:00,46.2,42.3,30.03,North,0,0.0,0.0,86,0.00,,,0.14,WUHU21623XXSP,2013-11-06 23:36:00,
2013-11-06 18:41:00,46.2,42.3,30.03,WNW,292,0.0,0.0,86,0.00,,,0.14,WUHU21623XXSP,2013-11-06 23:41:00,
2013-11-06 18:46:00,45.7,41.8,30.03,NNW,337,0.0,0.0,86,0.00,,,0.14,WUHU21623XXSP,2013-11-06 23:46:00,
2013-11-06 18:51:00,45.7,41.8,30.04,North,0,0.0,0.0,86,0.00,,,0.14,WUHU21623XXSP,2013-11-06 23:51:00,
2013-11-06 18:56:00,45.3,41.4,30.04,NW,315,0.0,0.0,86,0.00,,,0.14,WUHU21623XXSP,2013-11-06 23:56:00,
2013-11-06 19:01:00,45.0,41.0,30.04,NNW,337,0.0,0.0,86,0.00,,,0.14,WUHU21623XXSP,2013-11-07 00:01:00,
2013-11-06 19:06:00,44.6,40.7,30.04,WNW,292,0.0,0.0,86,0.00,,,0.14,WUHU21623XXSP,2013-11-07 00:06:00,
2013-11-06 19:11:00,44.4,40.5,30.05,WNW,292,0.0,0.0,86,0.00,,,0.14,WUHU21623XXSP,2013-11-07 00:11:00,
2013-11-06 19:16:00,44.1,40.1,30.05,NW,315,0.0,0.0,86,0.00,,,0.14,WUHU21623XXSP,2013-11-07 00:16:00,
2013-11-06 19:21:00,43.9,40.0,30.05,NW,315,0.0,0.0,86,0.02,,,0.16,WUHU21623XXSP,2013-11-07 00:21:00,
2013-11-06 19:26:00,43.7,39.8,30.04,WNW,292,0.0,0.0,86,0.02,,,0.16,WUHU21623XXSP,2013-11-07 00:26:00,
2013-11-06 19:31:00,43.5,39.6,30.06,NW,315,0.0,0.0,86,0.02,,,0.16,WUHU21623XXSP,2013-11-07 00:31:00,
2013-11-06 19:36:00,43.5,39.6,30.06,North,0,0.0,0.0,86,0.02,,,0.16,WUHU21623XXSP,2013-11-07 00:36:00,
2013-11-06 19:41:00,43.3,39.7,30.06,WNW,292,0.0,0.0,87,0.02,,,0.16,WUHU21623XXSP,2013-11-07 00:41:00,
2013-11-06 19:46:00,43.2,39.5,30.05,WNW,292,0.0,0.0,87,0.02,,,0.16,WUHU21623XXSP,2013-11-07 00:46:00,
2013-11-06 19:51:00,43.0,39.4,30.05,NW,315,0.0,0.0,87,0.02,,,0.16,WUHU21623XXSP,2013-11-07 00:51:00,
2013-11-06 19:56:00,43.0,39.4,30.06,NNW,337,0.0,0.0,87,0.02,,,0.16,WUHU21623XXSP,2013-11-07 00:56:00,
2013-11-06 20:01:00,43.0,39.4,30.05,North,0,0.0,0.0,87,0.02,,,0.16,WUHU21623XXSP,2013-11-07 01:01:00,
2013-11-06 20:06:00,43.0,39.4,30.06,WNW,292,0.0,0.0,87,0.04,,,0.18,WUHU21623XXSP,2013-11-07 01:06:00,
2013-11-06 20:11:00,42.8,39.2,30.08,WNW,292,0.0,0.0,87,0.04,,,0.18,WUHU21623XXSP,2013-11-07 01:11:00,
2013-11-06 20:16:00,42.6,39.0,30.07,NW,315,0.0,0.0,87,0.04,,,0.18,WUHU21623XXSP,2013-11-07 01:16:00,
2013-11-06 20:21:00,42.6,39.0,30.07,WNW,292,0.0,0.0,87,0.02,,,0.18,WUHU21623XXSP,2013-11-07 01:21:00,
2013-11-06 20:26:00,42.6,39.0,30.07,NW,315,0.0,0.0,87,0.02,,,0.18,WUHU21623XXSP,2013-11-07 01:26:00,
2013-11-06 20:31:00,42.6,39.0,30.06,NW,315,0.0,0.0,87,0.02,,,0.18,WUHU21623XXSP,2013-11-07 01:31:00,
2013-11-06 20:36:00,42.6,39.0,30.05,NNW,337,0.0,0.0,87,0.02,,,0.18,WUHU21623XXSP,2013-11-07 01:36:00,
2013-11-06 20:41:00,42.4,38.8,30.06,NW,315,0.0,0.0,87,0.02,,,0.18,WUHU21623XXSP,2013-11-07 01:41:00,
2013-11-06 20:46:00,42.4,38.8,30.07,NW,315,0.0,0.0,87,0.02,,,0.18,WUHU21623XXSP,2013-11-07 01:46:00,
2013-11-06 20:51:00,42.4,38.8,30.06,WNW,292,0.0,0.0,87,0.02,,,0.18,WUHU21623XXSP,2013-11-07 01:51:00,
2013-11-06 20:56:00,42.4,38.8,30.06,WNW,292,0.0,0.0,87,0.02,,,0.18,WUHU21623XXSP,2013-11-07 01:56:00,
2013-11-06 21:01:00,42.4,38.8,30.07,NW,315,0.0,0.0,87,0.02,,,0.18,WUHU21623XXSP,2013-11-07 02:01:00,
2013-11-06 21:06:00,42.4,38.8,30.07,NW,315,0.0,0.0,87,0.00,,,0.18,WUHU21623XXSP,2013-11-07 02:06:00,
2013-11-06 21:11:00,42.1,38.5,30.07,NW,315,0.0,0.0,87,0.00,,,0.18,WUHU21623XXSP,2013-11-07 02:11:00,
2013-11-06 21:16:00,42.1,38.5,30.07,NW,315,0.0,0.0,87,0.00,,,0.18,WUHU21623XXSP,2013-11-07 02:16:00,
2013-11-06 21:21:00,42.1,38.5,30.07,WNW,292,0.0,0.0,87,0.00,,,0.18,WUHU21623XXSP,2013-11-07 02:21:00,
2013-11-06 21:26:00,42.1,38.5,30.08,West,270,0.0,0.0,87,0.00,,,0.18,WUHU21623XXSP,2013-11-07 02:26:00,
2013-11-06 21:31:00,42.1,38.5,30.08,NW,315,0.0,0.0,87,0.00,,,0.18,WUHU21623XXSP,2013-11-07 02:31:00,
2013-11-06 21:36:00,42.1,38.5,30.09,WNW,292,0.0,0.0,87,0.00,,,0.18,WUHU21623XXSP,2013-11-07 02:36:00,
2013-11-06 21:41:00,42.1,38.5,30.09,NNW,337,0.0,0.0,87,0.00,,,0.18,WUHU21623XXSP,2013-11-07 02:41:00,
2013-11-06 21:46:00,41.9,38.3,30.10,NW,315,0.0,0.0,87,0.00,,,0.18,WUHU21623XXSP,2013-11-07 02:46:00,
2013-11-06 21:51:00,41.9,38.3,30.09,NNW,337,0.0,0.0,87,0.00,,,0.18,WUHU21623XXSP,2013-11-07 02:51:00,
2013-11-06 21:56:00,41.9,38.3,30.09,NNW,337,0.0,0.0,87,0.00,,,0.18,WUHU21623XXSP,2013-11-07 02:56:00,
2013-11-06 22:01:00,41.9,38.3,30.09,NW,315,0.0,0.0,87,0.00,,,0.18,WUHU21623XXSP,2013-11-07 03:01:00,
2013-11-06 22:06:00,41.9,38.3,30.09,NW,315,0.0,0.0,87,0.00,,,0.18,WUHU21623XXSP,2013-11-07 03:06:00,
2013-11-06 22:11:00,41.7,38.1,30.09,NW,315,0.0,0.0,87,0.00,,,0.18,WUHU21623XXSP,2013-11-07 03:11:00,
2013-11-06 22:16:00,41.7,38.1,30.09,NW,315,0.0,0.0,87,0.00,,,0.18,WUHU21623XXSP,2013-11-07 03:16:00,
2013-11-06 22:21:00,41.7,38.1,30.09,NW,315,0.0,0.0,87,0.00,,,0.18,WUHU21623XXSP,2013-11-07 03:21:00,
2013-11-06 22:26:00,41.7,38.1,30.10,NW,315,0.0,0.0,87,0.00,,,0.18,WUHU21623XXSP,2013-11-07 03:26:00,
2013-11-06 22:31:00,41.7,38.1,30.11,WNW,292,0.0,0.0,87,0.00,,,0.18,WUHU21623XXSP,2013-11-07 03:31:00,
2013-11-06 22:36:00,41.7,38.1,30.12,WNW,292,0.0,0.0,87,0.00,,,0.18,WUHU21623XXSP,2013-11-07 03:36:00,
2013-11-06 22:41:00,41.7,38.1,30.12,NW,315,0.0,0.0,87,0.00,,,0.18,WUHU21623XXSP,2013-11-07 03:41:00,
2013-11-06 22:46:00,41.7,38.1,30.11,NW,315,0.0,0.0,87,0.00,,,0.18,WUHU21623XXSP,2013-11-07 03:46:00,
2013-11-06 22:51:00,41.5,37.9,30.11,NNW,337,0.0,0.0,87,0.00,,,0.18,WUHU21623XXSP,2013-11-07 03:51:00,
2013-11-06 22:56:00,41.5,37.9,30.10,WNW,292,0.0,0.0,87,0.00,,,0.18,WUHU21623XXSP,2013-11-07 03:56:00,
2013-11-06 23:01:00,41.5,37.9,30.10,WNW,292,0.0,0.0,87,0.00,,,0.18,WUHU21623XXSP,2013-11-07 04:01:00,
2013-11-06 23:06:00,41.5,37.9,30.10,WNW,292,0.0,0.0,87,0.00,,,0.18,WUHU21623XXSP,2013-11-07 04:06:00,
2013-11-06 23:11:00,41.5,37.9,30.10,NW,315,0.0,0.0,87,0.00,,,0.18,WUHU21623XXSP,2013-11-07 04:11:00,
2013-11-06 23:16:00,41.5,37.9,30.09,NW,315,0.0,0.0,87,0.00,,,0.18,WUHU21623XXSP,2013-11-07 04:16:00,
2013-11-06 23:21:00,41.5,37.9,30.09,NW,315,0.0,0.0,87,0.00,,,0.18,WUHU21623XXSP,2013-11-07 04:21:00,
2013-11-06 23:26:00,41.5,37.9,30.10,NW,315,0.0,0.0,87,0.00,,,0.18,WUHU21623XXSP,2013-11-07 04:26:00,
2013-11-06 23:31:00,41.4,37.7,30.10,WNW,292,0.0,0.0,87,0.00,,,0.18,WUHU21623XXSP,2013-11-07 04:31:00,
2013-11-06 23:36:00,41.4,37.7,30.10,NNW,337,0.0,0.0,87,0.00,,,0.18,WUHU21623XXSP,2013-11-07 04:36:00,
2013-11-06 23:41:00,41.4,37.7,30.10,NW,315,0.0,0.0,87,0.00,,,0.18,WUHU21623XXSP,2013-11-07 04:41:00,
2013-11-06 23:46:00,41.2,37.6,30.10,NW,315,0.0,0.0,87,0.00,,,0.18,WUHU21623XXSP,2013-11-07 04:46:00,
2013-11-06 23:51:00,41.2,37.6,30.08,WNW,292,0.0,0.0,87,0.00,,,0.18,WUHU21623XXSP,2013-11-07 04:51:00,
2013-11-06 23:56:00,41.2,37.6,30.10,WNW,292,0.0,0.0,87,0.00,,,0.18,WUHU21623XXSP,2013-11-07 04:56:00,